BREEZE-M R/B

基本信息
目录编号:
35494
目录名称:
BREEZE-M R/B
国际标识:
2009-034B
轨道中心:
EARTH
物体状态:
在轨
发射日期:
2009-06-30 UTC
国别:
俄罗斯(独联体) (CIS)
轨道信息
数据来源: 国际轨道数据
星历时间: 2026-07-10T13:21:08+0800
半长轴: 26229.242km
偏心率: 0.6079843
轨道倾角: 23.342°
近地点辐角: 0.556°
升交点赤经: 259.305°
平近点角: 151.812°
近地点: 3904.137km
远地点: 35798.073km
周期: 704.593分钟
每日圈数: 2.043733
详细信息
发射场:
TTMTR
轨道高度:
MEO
数据来源:
AOE Integration Group
参考系:
TEME
时间系统:
UTC
历元类型:
SGP4
2D轨道图
3D轨道图
轨道高度分析图
轨道倾角分析图
轨道综合分析图
查看轨道综合分析图